Location: Borro del Ginesso
(43.6167°N, 11.7833°E)
Time: 01:03:04
(UTC+00:00)

Daily predictions for brighter satellites

Satellite Brightness Start Highest point End
(mag) Time Altitude Azimuth Time Altitude Azimuth Time Altitude Azimuth
ATLAS CENTAUR R/B 4.3 00:04:02 10° N 00:05:57 17° NE 00:08:54 10° E
GEOS 3 Rocket 3.5 00:07:39 49° SE 00:09:08 89° SW 00:14:27 10° NW
Cosmos 1726 4.3 00:09:16 10° NW 00:10:54 17° WNW 00:10:54 17° WNW
COSMOS 2455 2.8 00:11:39 51° SW 00:13:17 81° WNW 00:19:21 10° NNE
Cosmos 2058 Rocket 3.0 00:09:02 10° N 00:13:28 79° E 00:13:46 74° SE
Meteor 1-29 3.9 00:10:58 10° N 00:13:32 44° NNW 00:13:32 44° NNW
Cosmos 2228 3.5 00:11:49 10° NNW 00:15:32 47° WNW 00:15:32 47° WNW
SJ 16-02 4.0 00:14:11 10° NNE 00:17:01 16° ENE 00:19:51 10° E
SL-14 R/B 3.3 00:18:39 74° NE 00:18:39 74° NE 00:22:16 10° N
IRAS Rocket 4.1 00:17:53 51° S 00:19:23 84° WSW 00:24:59 10° NNW
Okean 1-7 Rocket 3.4 00:22:03 74° WSW 00:22:18 78° W 00:26:50 10° N
Cosmos 1174 4.3 00:23:33 45° NNW 00:23:33 45° NNW 00:26:27 10° NNE
Cosmos 921 Rocket 3.1 00:23:34 59° ESE 00:23:45 59° ESE 00:27:58 10° NNE
Cosmos 1300 2.7 00:21:23 10° N 00:25:04 74° NE 00:25:04 74° NE
BREEZE M DEB (TANK) 3.9 00:26:49 29° NNE 00:26:50 29° NNE 00:29:46 10° E
COSMOS 2487 4.3 00:25:41 10° NW 00:27:18 22° NW 00:27:18 22° NW
Meteor 2-16 Rocket 4.4 00:27:43 45° S 00:29:46 83° E 00:35:56 10° N
Cosmos 1626 Rocket 3.9 00:29:36 48° SE 00:30:13 52° E 00:34:26 10° NNE
Cosmos 2219 4.3 00:28:38 10° NNW 00:34:01 42° ENE 00:39:20 10° SE
Cosmos 1626 2.4 00:34:31 57° NW 00:34:31 57° NW 00:37:53 10° N
STARLINK-60 3.9 00:36:27 45° N 00:36:27 45° N 00:39:12 10° NE
FALCON 9 R/B 3.5 00:38:25 36° SW 00:41:14 51° SSE 01:01:35 10° ESE
Nadezhda 1 Rocket 4.0 00:36:40 10° N 00:42:51 82° E 00:45:52 33° SSE
MOZ.5/SAFIR/RUBIN 5/SL-8 3.6 00:44:16 51° SSE 00:45:26 90° ESE 00:50:06 10° NNW
UNK 3.9 00:44:00 37° SE 00:45:44 68° ENE 00:50:19 10° N
Cosmos 220 Rocket 3.9 00:46:16 62° S 00:46:56 79° ESE 00:51:23 10° NNE
Cosmos 2297 Rocket 3.2 00:44:16 10° NNW 00:49:42 45° ENE 00:55:05 10° SE
SL-4 R/B 2.7 00:49:13 33° W 00:51:12 61° NNW 00:55:54 10° NE
AQUA 4.5 00:46:57 10° NNE 00:51:34 47° E 00:53:18 32° SSE
Cosmos 1437 3.6 00:52:48 41° NNW 00:52:48 41° NNW 00:55:03 10° N
Cosmos 1812 Rocket 4.0 00:48:15 10° N 00:52:41 59° E 00:54:29 33° SE
CZ-4B R/B 4.0 00:48:04 10° NNE 00:53:08 55° E 00:55:16 33° SSE
STARLINK-1353 4.4 00:57:56 30° ESE 00:57:56 30° ESE 01:00:31 10° ENE
ATLAS CENTAUR R/B 2.6 00:56:56 28° W 00:58:16 35° NW 01:02:06 10° NNE
STARLINK-1375 4.3 00:59:43 32° ESE 00:59:43 32° ESE 01:02:25 10° ENE
SL-16 R/B 2.4 00:56:01 29° SSE 00:59:26 85° WSW 01:05:38 10° NNW
Cosmos 1777 Rocket 4.4 00:56:11 10° NNW 01:01:06 42° WSW 01:01:54 40° SW
STARLINK-1350 4.2 01:01:59 34° ESE 01:01:59 34° ESE 01:04:48 10° ENE
Timation 2 Rocket 3.9 00:55:24 10° NNW 01:01:38 63° WSW 01:04:30 32° S
FALCON 9 DEB 3.0 01:02:08 84° ESE 01:02:08 84° ESE 01:05:32 10° NE
BREEZE-M R/B 2.7 01:01:08 49° WSW 01:02:15 87° SSE 01:05:19 10° ENE
Cosmos 1602 Rocket 3.4 01:01:58 53° S 01:02:58 88° W 01:07:18 10° N
STARLINK-1352 4.1 01:04:09 36° SE 01:04:09 36° SE 01:07:08 10° ENE
OE (NEXTSAT) 4.3 01:03:39 69° WNW 01:03:58 77° NNW 01:07:27 10° ENE
STARLINK-29 3.4 01:04:34 53° NW 01:04:43 54° NNW 01:07:51 10° NE
STARLINK-1368 4.0 01:06:14 38° SE 01:06:14 38° SE 01:09:19 10° ENE
Cosmos 1455 3.1 01:04:00 10° N 01:07:37 44° ENE 01:09:23 25° SE
STARLINK-1369 3.9 01:08:12 40° SE 01:08:12 40° SE 01:11:21 10° ENE
BREEZE-M DEB (TANK) 3.6 01:09:30 23° E 01:09:30 23° E 01:10:36 10° ENE
ATLAS 3B R/B 2.9 01:02:23 10° NW 01:08:57 51° WSW 01:12:42 26° S
STARLINK-1372 3.8 01:10:25 43° SE 01:10:25 43° SE 01:13:43 10° ENE
IRS-1D 4.1 01:07:07 10° NNE 01:12:22 55° E 01:15:17 25° SSE
STARLINK-1378 3.7 01:12:32 45° SE 01:12:34 45° SE 01:15:57 10° ENE
CENTAUR R/B 4.0 01:05:48 10° NW 01:12:41 29° WSW 01:14:47 26° SW
STARLINK-1329 3.7 01:12:59 45° SE 01:13:03 45° SE 01:16:26 10° ENE
BREEZE-M DEB (TANK) 2.9 01:12:38 23° NW 01:13:27 28° NNW 01:15:32 10° NE
STARLINK-1365 3.5 01:13:46 48° SE 01:13:51 48° SE 01:17:17 10° ENE
GP-B 3.6 01:09:28 10° N 01:13:52 56° E 01:16:11 26° SSE
STARLINK-1379 3.6 01:14:39 47° SE 01:14:45 47° SE 01:18:10 10° ENE
Meteor 2-1 Rocket 4.1 01:09:32 10° NNW 01:15:03 80° W 01:18:03 28° S
STARLINK-1362 3.6 01:15:10 47° SSE 01:15:18 47° SE 01:18:44 10° ENE
Cosmos 1745 Rocket 4.2 01:12:45 33° SW 01:15:23 57° W 01:21:26 10° N
Cosmos-2242 4.0 01:13:09 10° N 01:17:15 44° ENE 01:20:32 15° SSE
STARLINK-1373 3.5 01:17:22 49° SSE 01:17:35 50° SE 01:21:02 10° ENE
STARLINK-1390 3.4 01:19:27 50° SSE 01:19:44 52° SE 01:23:12 10° ENE
RESURS DK-1 3.5 01:19:17 27° W 01:20:31 33° WNW 01:24:19 10° N
Cosmos 2181 Rocket 4.4 01:17:35 10° N 01:24:00 67° E 01:30:25 10° SSE
Cosmos 1356 Rocket 4.0 01:21:22 10° NNW 01:25:13 38° W 01:25:49 36° WSW
Cosmos 2227 Rocket 2.4 01:19:42 10° NNW 01:25:24 73° ENE 01:31:03 10° SSE
Cosmos 1763 Rocket 3.8 01:23:45 27° S 01:26:27 59° ESE 01:31:27 10° NNE
Cosmos 1697 Rocket 3.5 01:23:11 20° SSE 01:26:41 43° ESE 01:32:01 10° NE
CZ-2D R/B 2.3 01:22:43 10° N 01:27:52 57° WNW 01:30:15 30° SW
Cosmos 1703 3.6 01:26:48 30° SSE 01:28:35 60° E 01:32:29 10° NNE
ADEOS II 2.4 01:25:26 10° NNE 01:30:39 61° E 01:34:07 21° S
ATLAS 2AS CENTAUR R/B 4.4 01:23:45 10° W 01:30:46 32° NW 01:37:42 10° NNE
CZ-4C R/B 4.3 01:30:46 30° WSW 01:31:13 31° W 01:35:02 10° NNW
STARLINK-1228 3.0 01:33:29 10° WNW 01:36:46 54° SW 01:40:02 10° SE
Resurs 1-4 Rocket 2.6 01:32:33 10° N 01:37:35 46° WNW 01:40:11 26° SW
STARLINK-1234 3.6 01:34:54 10° WNW 01:41:18 - SE 01:37:02 36° W
USA 81 4.3 01:36:20 29° SSW 01:38:50 55° W 01:44:02 10° N
STARLINK-1212 2.6 01:36:14 10° WNW 01:39:20 75° SW 01:42:25 10° SE
STARLINK-1105 2.6 01:36:43 10° WNW 01:39:48 74° SW 01:42:53 10° SE
STARLINK-1232 4.4 01:35:58 10° NW 01:40:03 55° NNE 01:44:07 10° ESE
STARLINK-1209 4.3 01:37:11 10° WNW 01:44:33 - SE 01:38:42 25° WNW
STARLINK-1247 2.7 01:37:37 10° WNW 01:40:44 73° SW 01:43:50 10° SE
STARLINK-1227 2.6 01:38:05 10° WNW 01:41:10 72° SW 01:44:14 10° SE
STARLINK-52 4.4 01:39:41 21° WNW 01:41:15 33° NNW 01:44:13 10° NE
Cosmos 1758 Rocket 3.5 01:39:23 32° SSW 01:41:20 73° W 01:45:43 10° N
STARLINK-1226 2.7 01:38:56 10° WNW 01:42:02 70° SW 01:45:08 10° SE
ARIANE 5 R/B 3.2 01:37:51 10° NNE 01:42:46 48° E 01:46:54 14° S
STARLINK-1215 2.7 01:39:53 10° WNW 01:42:59 69° SW 01:46:05 10° SE
H-2A R/B 3.9 01:40:00 10° SE 01:43:49 32° ENE 01:47:44 10° N
STARLINK-1217 2.7 01:41:39 10° WNW 01:44:45 66° SW 01:47:50 10° SE
NPP 4.1 01:39:52 10° N 01:45:01 47° WNW 01:47:57 24° SW
STARLINK-1208 4.2 01:40:55 10° NW 01:45:01 59° NNE 01:49:07 10° ESE
STARLINK-1229 2.7 01:42:34 10° WNW 01:45:40 65° SW 01:48:46 10° SE
STARLINK-1270 2.7 01:43:26 10° WNW 01:46:32 63° SW 01:49:37 10° SE
STARLINK-1189 2.8 01:45:17 10° WNW 01:48:22 60° SW 01:51:27 10° SE
STARLINK-1188 2.8 01:46:10 10° WNW 01:49:15 59° SW 01:52:20 10° SE
STARLINK-1235 3.1 01:46:54 10° WNW 01:49:53 43° SW 01:52:50 10° SSE
Meteor 1-21 Rocket 4.5 01:46:49 25° SW 01:49:55 53° WNW 01:55:28 10° N
STARLINK-1271 4.1 01:45:54 10° NW 01:50:02 63° NNE 01:54:08 10° ESE
STARLINK-1187 2.9 01:47:18 10° WNW 01:50:18 50° SW 01:53:19 10° SE
Cosmos 1898 Rocket 3.5 01:45:11 10° NNW 01:50:33 80° WSW 01:55:51 10° SSE
STARLINK-1191 2.8 01:48:39 10° WNW 01:51:42 55° SW 01:54:43 10° SE
Cosmos 1656 3.8 01:48:20 24° SW 01:51:46 68° WNW 01:57:24 10° NNE
Lacrosse 4 Rocket 3.2 01:48:14 10° NNW 01:52:16 35° NE 01:56:09 10° ESE
STARLINK-1221 2.8 01:49:31 10° WNW 01:52:34 54° SW 01:55:36 10° SE
STARLINK-1222 2.9 01:50:25 10° WNW 01:53:28 53° SW 01:56:29 10° SE
CZ-4C R/B 2.2 01:50:43 23° SSW 01:53:48 64° ESE 01:59:31 10° NE
STARLINK-1214 2.9 01:51:20 10° WNW 01:54:22 52° SW 01:57:22 10° SE
STARLINK-1154 4.0 01:50:53 10° NW 01:55:01 68° NNE 01:59:09 10° ESE
Cosmos 468 Rocket 4.0 01:52:22 24° SW 01:55:23 65° WNW 02:00:30 10° NNE
SJ 16-02 1.4 01:51:38 10° NNW 01:55:58 55° WSW 01:59:17 17° S
IDEFIX/ARIANE 42P 4.0 01:51:20 10° NNE 01:56:06 34° E 02:00:50 10° SSE
Cosmos 2285 Rocket 4.2 01:49:41 10° NNW 01:56:06 79° ENE 02:02:26 10° SSE
Cosmos 1570 Rocket 4.2 01:53:00 18° S 01:56:57 69° ESE 02:02:14 10° NNE
Cosmos 1953 Rocket 3.5 01:54:38 21° S 01:57:39 88° W 02:02:08 10° N
Cosmos 2208 Rocket 4.4 01:55:43 16° S 01:59:51 61° ESE 02:05:04 10° NNE
STARLINK-1197 3.8 01:55:51 10° NW 02:00:00 73° NNE 02:04:08 10° ESE
Cosmos 2369 3.8 01:55:55 19° SSW 02:00:01 76° ESE 02:05:41 10° NNE
Cosmos 1937 Rocket 3.5 01:55:33 10° NNW 02:00:49 89° WSW 02:06:06 10° SSE
NOSS 7 (H) 4.1 01:59:32 30° SW 02:00:59 79° NW 02:03:58 10° NE
Meteor 2-10 Rocket 4.0 01:57:46 10° NNW 02:02:44 42° W 02:06:01 19° SSW
STARLINK-1198 3.7 02:00:48 10° NW 02:04:57 79° NE 02:09:06 10° ESE
STARLINK-1199 3.6 02:05:49 10° NW 02:09:58 85° NE 02:14:07 10° SE
Iridium 2 4.3 02:08:23 10° N 02:12:05 55° E 02:15:47 10° SSE
USA 129 4.0 02:13:20 10° ENE 02:14:09 12° E 02:14:52 10° ESE
STARLINK-1210 3.6 02:10:46 10° NW 02:14:56 89° SW 02:19:05 10° SE
Cosmos 1814 Rocket 4.2 02:11:06 13° SSW 02:15:48 75° ESE 02:21:09 10° NNE
STARLINK-1320 3.8 02:14:52 17° W 02:16:58 42° NNW 02:19:58 10° NE
STARLINK-1322 3.8 02:15:11 17° W 02:17:18 42° NNW 02:20:19 10° NE
STARLINK-1324 3.8 02:15:32 16° W 02:17:40 41° NNW 02:20:40 10° NE
STARLINK-1294 3.8 02:15:47 16° W 02:17:57 41° NNW 02:20:58 10° NE
Cosmos 2219 4.0 02:13:07 10° NW 02:17:59 30° WSW 02:22:14 12° SSW
STARLINK-1261 3.8 02:16:09 16° W 02:18:19 41° NNW 02:21:19 10° NE
STARLINK-1325 3.8 02:16:30 16° W 02:18:41 41° NNW 02:21:40 10° NE
Cosmos 1980 Rocket 2.6 02:13:41 11° S 02:18:54 62° ESE 02:24:28 10° NNE
STARLINK-1333 3.8 02:16:48 16° W 02:19:00 40° NNW 02:21:59 10° NE
STARLINK-1334 3.9 02:17:07 16° W 02:19:20 40° NNW 02:22:19 10° NE
STARLINK-1326 3.9 02:17:28 16° W 02:19:41 40° NNW 02:22:40 10° NE
STARLINK-1219 3.5 02:15:45 10° WNW 02:19:55 82° SW 02:24:03 10° SE
STARLINK-1323 3.9 02:17:47 15° W 02:20:01 40° NNW 02:23:00 10° NE
STARLINK-1338 3.8 02:17:39 16° W 02:20:13 48° NNW 02:23:37 10° NE
STARLINK-1349 3.9 02:18:06 15° W 02:20:21 40° NNW 02:23:20 10° NE
STARLINK-1336 3.9 02:18:28 15° W 02:20:43 39° NNW 02:23:42 10° NE
STARLINK-1331 3.9 02:18:45 15° W 02:21:02 39° NNW 02:24:00 10° NE
CZ-4B R/B 4.4 02:19:29 10° ESE 02:21:15 15° ENE 02:23:01 10° NNE
STARLINK-1344 3.9 02:19:05 15° W 02:21:22 39° NNW 02:24:21 10° NE
STARLINK-1343 3.9 02:19:25 15° W 02:21:43 39° NNW 02:24:41 10° NE
STARLINK-1346 3.9 02:19:43 14° W 02:22:04 39° NNW 02:25:04 10° NE
STARLINK-1328 3.9 02:20:05 14° W 02:22:25 38° NNW 02:25:23 10° NE
STARLINK-1354 3.9 02:20:22 14° W 02:22:43 38° NNW 02:25:41 10° NE
STARLINK-1347 4.0 02:20:44 14° W 02:23:05 38° NNW 02:26:03 10° NE
STARLINK-1357 4.0 02:21:02 14° W 02:23:24 38° NNW 02:26:21 10° NE
ERS-2 2.1 02:19:48 10° S 02:23:26 68° WSW 02:27:06 10° NNW
STARLINK-1335 4.0 02:21:22 14° W 02:23:46 38° NNW 02:26:42 10° NE
STARLINK-1327 4.0 02:21:41 14° W 02:24:05 37° NNW 02:27:02 10° NE
STARLINK-1371 4.0 02:21:31 14° W 02:24:16 45° NNW 02:27:39 10° NE
STARLINK-1340 4.0 02:22:01 14° W 02:24:27 37° NNW 02:27:23 10° NE
STARLINK-1356 4.0 02:22:21 13° W 02:24:46 37° NNW 02:27:43 10° NE
STARLINK-1211 3.5 02:20:43 10° WNW 02:24:52 76° SW 02:29:00 10° SE
STARLINK-1345 4.0 02:22:41 13° W 02:25:08 37° NNW 02:28:04 10° NE
STARLINK-1355 4.0 02:22:59 13° W 02:25:27 37° NNW 02:28:23 10° NE
STARLINK-1321 4.0 02:23:18 13° W 02:25:47 36° NNW 02:28:43 10° NE
STARLINK-1358 4.0 02:23:39 13° W 02:26:09 36° NNW 02:29:05 10° NE
STARLINK-1341 4.0 02:23:29 13° W 02:26:19 44° NNW 02:29:42 10° NE
STARLINK-1332 4.1 02:23:57 13° W 02:26:27 36° NNW 02:29:23 10° NE
STARLINK-1348 4.1 02:24:18 13° W 02:26:49 36° NNW 02:29:45 10° NE
STARLINK-1330 4.1 02:24:36 13° W 02:27:08 36° NNW 02:30:04 10° NE
STARLINK-1363 4.1 02:24:56 12° W 02:27:29 35° NNW 02:30:24 10° NE
STARLINK-1337 4.1 02:25:15 12° W 02:27:49 35° NNW 02:30:45 10° NE
STARLINK-1342 4.1 02:25:35 12° W 02:28:09 35° NNW 02:31:05 10° NE
STARLINK-1374 4.1 02:25:26 13° W 02:28:22 43° NNW 02:31:45 10° NE
STARLINK-1364 4.1 02:25:55 12° W 02:28:30 35° NNW 02:31:25 10° NE
IRS-1C 4.5 02:23:38 10° N 02:28:48 50° WNW 02:33:25 13° SW
STARLINK-1376 4.1 02:26:15 12° W 02:28:51 35° NNW 02:31:46 10° NE
STARLINK-1360 4.1 02:26:30 12° W 02:29:07 35° NNW 02:32:02 10° NE
STARLINK-1361 4.1 02:26:56 12° W 02:29:34 34° NNW 02:32:28 10° NE
STARLINK-1367 4.1 02:27:10 12° W 02:29:50 35° NNW 02:32:47 10° NE
STARLINK-1245 3.5 02:25:44 10° WNW 02:29:51 69° SW 02:33:58 10° SE
STARLINK-1366 4.2 02:27:33 11° W 02:30:12 34° NNW 02:33:07 10° NE
STARLINK-1339 4.1 02:27:27 12° W 02:30:28 41° NNW 02:33:50 10° NE
SL-4 R/B 4.0 02:27:18 10° WNW 02:31:35 31° N 02:35:42 10° ENE
STARLINK-1377 4.2 02:29:28 11° W 02:32:35 40° NNW 02:35:55 10° NE
Cosmos 2297 Rocket 3.1 02:28:45 10° NW 02:33:30 28° WSW 02:38:13 10° SSW
STARLINK-1353 4.2 02:31:17 11° W 02:34:27 39° NNW 02:37:44 10° NE
STARLINK-1233 3.6 02:30:42 10° WNW 02:34:49 63° SW 02:38:54 10° SE
STARLINK-1375 4.3 02:33:04 10° W 02:36:19 38° NNW 02:39:36 10° NE
Cosmos 540 Rocket 3.5 02:32:22 12° SSW 02:37:05 66° WNW 02:42:13 10° NNE
Cosmos 2082 3.8 02:31:57 10° NW 02:37:26 52° WSW 02:42:51 10° S
STARLINK-1350 4.3 02:35:28 10° W 02:38:43 37° NNW 02:41:59 10° NE
STARLINK-1204 3.6 02:35:43 10° WNW 02:39:47 58° SW 02:43:51 10° SE
Landsat 5 3.7 02:35:48 10° SSE 02:40:17 87° W 02:44:50 10° NNW
STARLINK-1352 4.4 02:37:52 10° W 02:41:09 36° NNW 02:44:27 10° NE
Cosmos 2278 3.8 02:36:09 11° SSW 02:41:35 74° WNW 02:47:16 10° NNE
Cosmos 1455 4.3 02:41:20 10° WNW 02:42:47 12° W 02:44:14 10° WSW
CZ-2D R/B 3.6 02:39:09 10° N 02:43:13 60° WNW 02:47:20 10° SSW
Meteor 1-28 Rocket 3.7 02:39:45 10° S 02:43:20 40° W 02:46:56 10° NNW
STARLINK-1368 4.4 02:40:04 10° W 02:43:21 35° NNW 02:46:37 10° NE
SL-16 R/B 4.2 02:41:13 10° WSW 02:43:54 13° W 02:46:35 10° WNW
USA 234 3.6 02:37:43 10° NE 02:44:11 61° SE 02:50:38 10° SW
STARLINK-1238 3.7 02:40:41 10° WNW 02:44:44 53° SW 02:48:45 10° SE
STARLINK-1369 4.5 02:42:03 10° W 02:45:16 34° NNW 02:48:30 10° NE
Cosmos 489 Rocket 4.5 02:40:22 10° SSW 02:46:34 81° WNW 02:52:50 10° NNE
Cosmos 2074 Rocket 4.3 02:40:46 10° SSW 02:46:52 52° WNW 02:53:01 10° N
IRIDIUM 106 4.3 02:42:14 10° S 02:47:27 83° W 02:52:41 10° N
ATLAS CENTAUR R/B 3.4 02:44:35 10° WNW 02:48:16 33° SW 02:56:16 10° SSE
Cosmos 841 Rocket 3.9 02:44:27 10° SW 02:49:26 49° WNW 02:54:32 10° N
Cosmos 2263 Rocket 3.3 02:44:04 10° NNW 02:49:31 49° ENE 02:54:53 10° SE
STARLINK-1201 3.8 02:45:43 10° WNW 02:49:43 48° SW 02:53:41 10° SSE
Cosmos 2322 Rocket 4.1 02:45:05 10° SSE 02:49:43 27° ESE 02:54:21 10° NE
Cosmos 372 Rocket 3.9 02:46:01 10° NNW 02:51:08 73° WSW 02:56:15 10° S
Cosmos 1892 3.3 02:49:06 10° S 02:52:52 58° E 02:56:39 10° NNE
COBE Rocket 4.5 02:48:48 10° SSW 02:53:23 39° W 02:58:06 10° NNW
STARLINK-1206 3.9 02:50:43 10° WNW 02:54:40 44° SW 02:58:36 10° SSE
Cosmos 1869 3.2 02:51:28 10° N 02:55:22 82° W 02:59:13 10° S
Cosmos 1400 Rocket 3.7 02:52:12 10° NNW 02:55:53 32° W 02:59:33 10° SSW
Cosmos 2221 2.5 02:52:27 10° NNW 02:56:46 70° W 03:01:05 10° S
PSLV R/B 4.3 02:52:55 10° NNE 02:57:04 53° E 03:01:10 10° S
In-Cosmos 22 Rocket 4.5 02:51:25 10° S 02:57:10 76° E 03:02:48 10° NNE
Cosmos 2184 Rocket 4.5 02:52:37 10° SSW 02:58:28 43° WNW 03:04:19 10° N
SL-08 R/B 4.5 02:55:12 10° SSW 02:58:58 23° W 03:02:43 10° NW
CZ-4C R/B 3.5 02:55:55 10° S 02:59:17 40° W 03:02:44 10° NNW
STARLINK-1205 4.0 02:55:44 10° WNW 02:59:37 40° SW 03:03:29 10° SSE
STARLINK-1237 4.4 02:57:54 10° NW 03:02:00 57° NNE 03:06:05 10° ESE
STARLINK-1218 4.2 03:00:44 10° WNW 03:04:33 36° SW 03:08:22 10° SSE
